sat.trackr.live / text

‹ back to catalog

NASBSAT-2

NORAD 67285 · 2025-313AP

PAYLOAD ACTIVE UNKNOWN

§ Identity

Operator
Country
BELA
Launch date
2025-12-28
Launch site
VOSTO
Launch vehicle
Mass (kg)
RCS (m²)

External: N2YO · Heavens-Above · Gunter

§ Orbital elements

Epoch: 2026-09-20T22:47:46.073184Z

Period
94.44 min
Inclination
97.3842°
Eccentricity
0.0010599
Mean motion
15.24727096 rev/d
Perigee alt
484.3 km
Apogee alt
498.9 km
Semi-major
6,869.7 km
B*
1.5965e-4
RAAN
337.4065°
Arg perigee
31.8456°
Mean anomaly
328.3421°
Rev number
4,055

§ Raw data

NASBSAT-21 67285U 25313AP  26263.94983881  .00003885  00000+0  15965-3 0  99932 67285  97.3842 337.4065 0010599  31.8456 328.3421 15.24727096 40552

JSON: /api/v1/satellites/67285 · /tle

For live sub-satellite position, see the globe view (requires WebGL).

§ Visibility from observer

Set your observer location to see the next 7 days of passes ≥ 10°. The values pass through the URL so the page stays shareable.

No JS? Fill the form by hand. The geolocation button needs JavaScript.

§ Radio — SatNOGS DB

ModeDescriptionDownlinkUplink
GMSK USP Mode U - GMSK2k4 - USP 401.700 MHz
GMSK USP Mode U - GMSK2k4 - USP 401.800 MHz

2 transmitters · refreshed weekly from db.satnogs.org